This demonstration page uses our WeatherBlox Daily Observations layout. Learn more.

Left ArrowRight Arrow

31.84235, -102.49876

Hourly Observations for March 9, 2017

Temp ( °F °C ) Dew Point ( °F °C ) Humidity (%) Winds ( mph kmh ) Pressure ( in mb ) Visibility ( mi km ) Precip ( " mm )
12:53 am 00:53 Clear 63 17.2 56 13.3 78 78 S 21 33 30.04 1017 9 14 0.00 0.00
1:53 am 01:53 Clear 63 17.2 57 13.9 81 81 S 14 22 30.04 1017 10 16 0.00 0.00
2:53 am 02:53 Clear 63 17.2 56 13.3 78 78 S 12 19 30.00 1016 10 16 0.00 0.00
3:53 am 03:53 Clear 62 16.7 56 13.3 80 80 S 13 20 30.00 1016 10 16 0.00 0.00
4:36 am 04:36 Cloudy 62 16.7 56 13.3 80 80 S 15 24 30.03 1017 9 14 0.00 0.00
4:53 am 04:53 Cloudy 62 16.7 56 13.3 80 80 S 16 26 29.99 1016 9 14 0.00 0.00
5:53 am 05:53 Cloudy 62 16.7 56 13.3 80 80 S 15 24 30.00 1016 10 16 0.00 0.00
6:14 am 06:14 Clear 62 16.7 56 13.3 80 80 S 17 28 30.03 1017 9 14 0.00 0.00
6:53 am 06:53 Clear 61 16.1 56 13.3 84 84 S 13 20 30.00 1016 8 13 0.00 0.00
7:53 am 07:53 Partly Cloudy with Mist and Fog 61 16.1 57 13.9 87 87 SSW 8 13 30.01 1016 6 10 0.00 0.00
8:53 am 08:53 Sunny 63 17.2 57 13.9 81 81 WSW 6 9 30.05 1018 7 11 0.00 0.00
9:24 am 09:24 Mostly Cloudy 63 17.2 57 13.9 81 81 WSW 8 13 30.09 1019 8 13 0.00 0.00
9:40 am 09:40 Partly Cloudy 64 17.8 57 13.9 78 78 WSW 8 13 30.03 1017 8 13 0.00 0.00
9:53 am 09:53 Sunny 65 18.3 57 13.9 76 76 SSW 7 11 30.06 1018 9 14 0.00 0.00
10:53 am 10:53 Sunny 67 19.4 56 13.3 68 68 SW 6 9 30.05 1018 10 16 0.00 0.00
11:53 am 11:53 Sunny 75 23.9 53 11.7 46 46 W 12 19 30.03 1017 10 16 0.00 0.00
12:53 pm 12:53 Sunny 79 26.1 48 8.9 34 34 WNW 18 30 30.00 1016 10 16 0.00 0.00
1:53 pm 13:53 Sunny 82 27.8 46 7.8 28 28 WNW 15 24 29.96 1015 10 16 0.00 0.00
2:53 pm 14:53 Sunny 84 28.9 37 2.8 19 19 NW 15 24 29.93 1013 10 16 0.00 0.00
3:53 pm 15:53 Sunny 83 28.3 37 2.8 19 19 NW 14 22 29.92 1013 10 16 0.00 0.00
4:53 pm 16:53 Sunny 83 28.3 36 2.2 19 19 WNW 12 19 29.91 1013 10 16 0.00 0.00
5:53 pm 17:53 Sunny 82 27.8 34 1.1 18 18 Calm 29.91 1013 10 16 0.00 0.00
6:53 pm 18:53 Sunny 78 25.6 34 1.1 20 20 Calm 29.93 1014 10 16 0.00 0.00
7:53 pm 19:53 Clear 75 23.9 33 0.6 22 22 SE 5 7 29.96 1014 10 16 0.00 0.00
8:53 pm 20:53 Clear 70 21.1 43 6.1 38 38 SSW 8 13 29.98 1015 10 16 0.00 0.00
9:53 pm 21:53 Clear 68 20 55 12.8 63 63 S 13 20 30.00 1016 10 16 0.00 0.00
10:53 pm 22:53 Clear 65 18.3 56 13.3 73 73 SSW 8 13 30.01 1016 10 16 0.00 0.00
11:53 pm 23:53 Clear 64 17.8 56 13.3 75 75 S 10 17 30.01 1016 10 16 0.00 0.00

Powered by AerisWeather